Find Starlink 5420

NORAD ID: 54798 Int'l Des: 2022-175 Owner: SPXS Country: US Constellation: starlink operational
LEOCIRCULAR

Current View

Loading 3D Globe...

About Starlink 5420

Description loading...

Upcoming Passes

Passes for default location (London). Set your location on the main map for personalized predictions.

Altitude History

Loading altitude history...

Two-Line Element Set

1 54798U 22175AS 26146.05914390 .00000215 00000-0 31596-4 0 9996
2 54798 53.2112 31.5552 0001661 81.9814 278.1366 15.08836154191954
Epoch: May 26, 2026 • Age: 12 hours

Current Status

Altitude 557.8 km
Velocity 7.58 km/s
Sub-Earth Point -49.19°S, 179.79°E
Launch Date Dec 17, 2022
Age 3.4 years
Type internet

Technical Details

Classification Payload
Mass 305.00 kg
Dry Mass 290.00 kg
Total Mass 305.00 kg
Length 0.20 m
Diameter 2.80 m
Span 9.00 m
Shape Box + pan
Manufacturer SPXS
Bus Type Starlink
Phase Status In Orbit
Owner/State SPXS/US

Most Searched